Home   Weather   Damascus   Past weeks

Flag for Syria Past Weather in Damascus, Syria — Yesterday and Last 2 Weeks

Now
39 °F

Sunny.


Feels Like: 33 °F
Forecast: 34 / 61 °F
Wind: 9 mph from Northeast

Location: Damascus Int. Airport

Current Time: Jan 24, 2017 at 9:40:32 am

Latest Report: Jan 24, 2017 at 9:00 am


Visibility: 10 mi

Pressure: 30.30 "Hg (27.83 "Hg at 689m altitude)

Humidity: 61%

Dew Point: 27 °F

Location of DamascusLocation

Past Weather in Damascus — Graph

°F

Damascus Temperature Yesterday

Maximum temperature yesterday: 54 °F (at 2:00 pm)
Minimum temperature yesterday: 27 °F (at 6:00 am)
Average temperature yesterday: 40 °F

High & Low Weather Summary for the Past Weeks

 TemperatureHumidityPressure
High73 °F (Jan 19, 7:10 am)100% (Jan 10, 2:00 am)30.33 "Hg (Jan 10, 2:00 am)
Low27 °F (Jan 22, 7:00 am)26% (Jan 11, 4:00 pm)29.92 "Hg (Jan 9, 7:00 am)
Average43 °F73%30.14 "Hg
* Reported Jan 9 7:00 am — Jan 24 7:00 am, Damascus, Weather by CustomWeather, © 2017

Note: Actual official high and low records may vary slightly from our data, if they occured in-between our weather recording intervals... More about our weather records

Advertising

Damascus Weather History for the Previous 24 Hours

Scroll right to see more
 ConditionsComfort  
Time TempWeatherWind HumidityBarometerVisibility
7:00 am
Tue, Jan 24
28 °FSunny.7 mph80%30.27 "Hg10 mi
6:00 am30 °FClear.9 mph75%30.24 "Hg10 mi
5:00 am30 °FClear.9 mph80%30.24 "Hg10 mi
4:00 am30 °FClear.7 mph75%30.24 "Hg10 mi
3:00 am28 °FClear.7 mph80%30.24 "Hg10 mi
2:00 am30 °FClear.No wind75%30.27 "Hg10 mi
1:00 am32 °FClear.No wind75%30.27 "Hg10 mi
12:00 am34 °FClear.5 mph70%30.27 "Hg10 mi
11:00 pm
Mon, Jan 23
34 °FClear.7 mph70%30.27 "Hg10 mi
10:00 pm36 °FClear.No wind65%30.27 "Hg10 mi
9:00 pm37 °FClear.5 mph60%30.27 "Hg10 mi
8:00 pm43 °FClear.7 mph49%30.24 "Hg10 mi
7:00 pm45 °FClear.9 mph46%30.21 "Hg10 mi
6:00 pm45 °FClear.9 mph49%30.21 "Hg10 mi
5:00 pm50 °FClear.9 mph40%30.21 "Hg10 mi
4:00 pm54 °FSunny.5 mph33%30.21 "Hg10 mi
3:00 pm54 °FSunny.9 mph30%30.21 "Hg10 mi
2:00 pm54 °FSunny.7 mph33%30.21 "Hg10 mi
1:00 pm52 °FSunny.5 mph38%30.21 "Hg10 mi
12:00 pm50 °FSunny.7 mph40%30.24 "Hg18 mi
11:00 am48 °FSunny.7 mph46%30.27 "Hg10 mi
10:00 am43 °FSunny.9 mph57%30.30 "Hg10 mi
9:00 am39 °FSunny.5 mph65%30.27 "Hg10 mi
Weather by CustomWeather, © 2017

See weather overviewHow to use our weather pages